Weather History for Reno, NV

Change the Weather History Date:

Wednesday, February 27, 2013

  Actual Average Record
Temperature  
Mean Temperature 40 °F 43 °F  
Max Temperature 59 °F 54 °F 74 °F (1986)
Min Temperature 21 °F 31 °F -12 °F (1962)
Degree Days  
Heating Degree Days 25 22  
Month to date heating degree days 719 679  
Since 1 July heating degree days 3466 3616  
Cooling Degree Days 0 0  
Month to date cooling degree days 0 0  
Year to date cooling degree days 0 0  
Moisture  
Dew Point 10 °F    
Average Humidity 39    
Maximum Humidity 62    
Minimum Humidity 15    
Precipitation  
Precipitation 0.00 in 0.04 in 0.55 in (2006)
Month to date precipitation T 0.98  
Year to date precipitation 0.12 2.01  
Snow  
Snow 0.00 in 0.20 in 4.70 in (1955)
Month to date snowfall T 4.8  
Since 1 July snowfall 9.3 18.8  
Snow Depth 0.00 in    
Sea Level Pressure  
Sea Level Pressure 30.32 in    
Wind  
Wind Speed 1 mph (ENE)    
Max Wind Speed 12 mph    
Max Gust Speed 14 mph    
Visibility 10 miles    
Events      
T = Trace of Precipitation, MM = Missing Value Source: NWS Daily Summary

Daily Weather History Graph

Daily Weather History Graph

Search for Another Location

Airport:

Trip Planner

Search our weather history database for the weather conditions in past years. The results will help you decide how hot, cold, wet, or windy it might be!

Date:

Astronomy

Feb. 27, 2013 Rise Set
Actual Time 6:34 AM PST 5:49 PM PST
Civil Twilight 6:07 AM PST 6:16 PM PST
Nautical Twilight 5:36 AM PST 6:47 PM PST
Astronomical Twilight 5:05 AM PST 7:18 PM PST
Moon 8:15 PM PST (2/27) 7:13 AM PST (2/27)
Length of Visible Light 12h 09m
Length of Day
11h 15m
Waning Gibbous, 96% of the Moon is Illuminated
Feb 27
Waning Gibbous
Mar 4
Last Quarter
Mar 11
New
Mar 19
First Quarter
Mar 27
Full

Hourly Weather History & Observations

Time (PST) Temp. Windchill Dew Point Humidity Pressure Visibility Wind Dir Wind Speed Gust Speed Precip Events Conditions
12:55 AM 28.9 °F - 9.0 °F 43% 30.30 in 10.0 mi Calm Calm - N/A   Clear
1:55 AM 26.1 °F - 8.1 °F 47% 30.32 in 10.0 mi Calm Calm - N/A   Clear
2:55 AM 25.0 °F - 8.1 °F 49% 30.32 in 10.0 mi Calm Calm - N/A   Clear
3:55 AM 25.0 °F - 8.1 °F 49% 30.33 in 10.0 mi Calm Calm - N/A   Clear
4:55 AM 24.1 °F - 9.0 °F 53% 30.35 in 10.0 mi Calm Calm - N/A   Clear
5:55 AM 23.0 °F - 10.0 °F 58% 30.37 in 10.0 mi Calm Calm - N/A   Clear
6:55 AM 21.0 °F - 10.9 °F 65% 30.39 in 10.0 mi Calm Calm - N/A   Scattered Clouds
7:55 AM 25.0 °F - 10.9 °F 55% 30.40 in 10.0 mi Calm Calm - N/A   Scattered Clouds
8:55 AM 32.0 °F - 10.9 °F 42% 30.39 in 10.0 mi Calm Calm - N/A   Scattered Clouds
9:55 AM 37.9 °F - 12.0 °F 35% 30.37 in 10.0 mi Calm Calm - N/A   Scattered Clouds
10:55 AM 44.1 °F - 12.0 °F 27% 30.34 in 10.0 mi Calm Calm - N/A   Mostly Cloudy
11:55 AM 48.9 °F - 10.9 °F 22% 30.31 in 10.0 mi Calm Calm - N/A   Scattered Clouds
12:55 PM 53.1 °F - 10.0 °F 18% 30.29 in 10.0 mi Calm Calm - N/A   Scattered Clouds
1:55 PM 55.9 °F - 8.1 °F 15% 30.26 in 10.0 mi NNW 3.5 mph - N/A   Scattered Clouds
2:55 PM 57.9 °F - 10.0 °F 15% 30.25 in 10.0 mi Calm Calm - N/A   Scattered Clouds
3:55 PM 57.9 °F - 10.0 °F 15% 30.24 in 10.0 mi South 3.5 mph - N/A   Mostly Cloudy
4:55 PM 57.0 °F - 10.0 °F 15% 30.25 in 10.0 mi ESE 4.6 mph - N/A   Scattered Clouds
5:55 PM 51.8 °F - 8.6 °F 18% 30.26 in 10.0 mi East 6.9 mph - N/A   Scattered Clouds
6:55 PM 50.0 °F - 7.0 °F 18% 30.30 in 10.0 mi Calm Calm - N/A   Scattered Clouds
7:55 PM 46.0 °F 41.9 °F 8.1 °F 21% 30.32 in 10.0 mi North 8.1 mph - N/A   Scattered Clouds
8:55 PM 45.0 °F 42.6 °F 10.0 °F 24% 30.32 in 10.0 mi NE 4.6 mph - N/A   Scattered Clouds
9:55 PM 42.8 °F - 10.4 °F 27% 30.35 in 10.0 mi Calm Calm - N/A   Mostly Cloudy
10:55 PM 39.2 °F - 12.2 °F 33% 30.35 in 10.0 mi Calm Calm - N/A   Mostly Cloudy
11:55 PM 37.0 °F - 12.9 °F 37% 30.35 in 10.0 mi Calm Calm - N/A   Overcast